User: anonymous   Login
Location: ????????
(38.4362°N, 22.8767°E)
Time: 18:02:05
(UTC+00:00)
Language:

CZ-2D R/B - Orbit

View from above orbital plane
View from above orbital plane
View from above satellite
View from above satellite

Ground track
Ground track

The orbit data is extracted from the following two-line orbital elements,

1 37932U 11068C   24177.48886649  .00000160  00000-0  90920-4 0  9995
2 37932  98.7970 119.2570 0036804 177.9450 293.8816 14.22525612653905
Epoch (UTC): 25 June 2024 11:43:58
Eccentricity: 0.0036804
inclination: 98.7970°
perigee height: 790 km
apogee height: 843 km
right ascension of ascending node: 119.2570°
argument of perigee: 177.9450°
revolutions per day: 14.22525612
mean anomaly at epoch: 293.8816°
orbit number at epoch: 65390

The dashed part of the orbit path shows where the satellite is in the earth's shadow,  

DLR